Content
SEND FEEDBACK

Daily
Averages
Monthly
Summary
United States of America

MONCLOVA, OHIO


Home > North America > United States > Ohio
Elevation: 663 feet     Latitude: 41 35N     Longitude: 083 48W

WEATHER
 
SELECT A DAY
Number of Records: 214,678;   Date Range: 1/1/95 - 7/29/14
 
SHARE

PRINT THIS DATA

[ ← Previous Day ]
WEATHER ALMANAC - FEBRUARY 13, 2013
[ Next Day → ]
[ °C ]   °F
Weather ElementAverageHighLow
Temperature29.8 °F37 °F (3:52 pm)26.1 °F (5:52 am)
Dewpoint21.3 °F24.1 °F (7:52 pm)19 °F (5:52 am)
Humidity71.4 %85 % (10:52 pm)54 % (3:52 pm)
Barometer29.84 in29.94 in (1:52 am)29.77 in (3:52 pm)
Wind Speed3.3 mph8.1 mph (2:52 am)
Weather ElementAverage
Visibility9.2 mi
Wind DirectionSSE (159.6 °)

Weather ElementTotal
Precipitation---
Heating Degree Days33.5 (Base 65)
Averaged from 24 records on February 13, 2013
WEATHER CONDITIONS BREAKOUT
WIND DIRECTION BREAKOUT
WEATHER BY HOUR - FEBRUARY 13, 2013
[ °C ]   °F
Local TimeTemperatureDewpointHumidityBarometerVisibilityWind DirectionWind SpeedGust SpeedPrecipitationEventsConditions
1:52 AM28.0 °F19.9 °F72 %29.94 in10.0 miWest (280°)3.5 mphOvercast
2:52 AM26.6 °F19.4 °F74 %29.91 in10.0 miNNW (330°)8.1 mphOvercast
3:52 AM27.0 °F19.9 °F75 %29.91 in10.0 miNW (320°)3.5 mphOvercast
4:52 AM27.0 °F19.9 °F75 %29.90 in10.0 miVariable3.5 mphOvercast
5:52 AM26.1 °F19.0 °F75 %29.89 in10.0 miWNW (290°)4.6 mphOvercast
6:52 AM26.1 °F19.0 °F75 %29.88 in10.0 miNorth (350°)3.5 mphOvercast
7:52 AM26.1 °F19.0 °F75 %29.87 in10.0 miCalmOvercast
8:52 AM26.1 °F19.0 °F75 %29.86 in10.0 miCalmOvercast
9:52 AM27.0 °F19.9 °F75 %29.85 in10.0 miCalmOvercast
10:52 AM27.0 °F19.9 °F75 %29.86 in10.0 miSW (230°)3.5 mphOvercast
11:15 AM30.2 °F19.4 °F64 %29.82 in10.0 miCalmScattered Clouds
11:52 AM32.0 °F19.9 °F61 %29.84 in10.0 miCalmClear
12:52 PM33.1 °F21.9 °F64 %29.82 in9.0 miWNW (300°)5.8 mphClear
1:52 PM35.1 °F21.9 °F59 %29.80 in10.0 miWNW (290°)4.6 mphClear
2:52 PM36.0 °F21.9 °F57 %29.78 in10.0 miWest (270°)6.9 mphClear
3:52 PM37.0 °F21.9 °F54 %29.77 in10.0 miVariable3.5 mphClear
4:52 PM36.0 °F23.0 °F59 %29.77 in9.0 miWSW (240°)5.8 mphClear
5:52 PM35.1 °F23.0 °F61 %29.78 in10.0 miSW (220°)4.6 mphClear
6:52 PM30.0 °F23.0 °F75 %29.80 in9.0 miSouth (180°)3.5 mphClear
7:52 PM30.0 °F24.1 °F79 %29.81 in7.0 miSouth (180°)4.6 mphClear
8:52 PM28.9 °F24.1 °F82 %29.82 in7.0 miCalmClear
9:52 PM28.9 °F24.1 °F82 %29.82 in7.0 miSSE (160°)3.5 mphMostly Cloudy
10:52 PM28.0 °F24.1 °F85 %29.82 in6.0 miCalmClear
11:52 PM28.0 °F24.1 °F85 %29.81 in7.0 miSouth (190°)5.8 mphClear
Hourly data recorded from KTOL, located miles away from Monclova, Ohio







STORIES FROM OUR PARTNERS